This is the latest recevied weather packets stored in our database for station/object OE-11349. If no packets are shown the sender has not sent any weather packets the latest 10 day(s).
| Time | Temp. | Humidity | Pressure | Rain* | Wind** | Luminosity | Snow |
|---|---|---|---|---|---|---|---|
| 1788033909 | 11.67° C | 87% | 853.9 hPa | - | - | 0 W/m² | - |
| 1788033309 | 11.67° C | 86% | 853.9 hPa | - | - | 0 W/m² | - |
| 1788032482 | 12.22° C | 86% | 853.8 hPa | - | - | 0 W/m² | - |
| 1788032109 | 12.22° C | 87% | 853.7 hPa | - | - | 0 W/m² | - |
| 1788031509 | 12.22° C | 86% | 853.7 hPa | - | - | 0 W/m² | - |
| 1788030682 | 12.78° C | 86% | 853.7 hPa | - | - | 0 W/m² | - |
| 1788030309 | 12.78° C | 86% | 853.7 hPa | - | - | 0 W/m² | - |
| 1788029709 | 12.22° C | 87% | 853.6 hPa | - | - | 0 W/m² | - |
| 1788028882 | 12.22° C | 86% | 853.5 hPa | - | - | 0 W/m² | - |
| 1788028509 | 12.22° C | 85% | 853.5 hPa | - | - | 0 W/m² | - |
| 1788027909 | 12.78° C | 84% | 853.4 hPa | - | - | 0 W/m² | - |
| 1788027082 | 12.78° C | 83% | 853.2 hPa | - | - | 0 W/m² | - |
| 1788026709 | 12.78° C | 83% | 853.2 hPa | - | - | 7 W/m² | - |
| 1788026109 | 12.78° C | 83% | 853 hPa | - | - | 14 W/m² | - |
| 1788025282 | 13.33° C | 82% | 853 hPa | - | - | 28 W/m² | - |
| 1788024909 | 13.33° C | 82% | 853 hPa | - | - | 34 W/m² | - |
| 1788024309 | 13.33° C | 81% | 853 hPa | - | - | 34 W/m² | - |
| 1788023482 | 13.89° C | 80% | 853.2 hPa | - | - | 28 W/m² | - |
| 1788023108 | 13.89° C | 80% | 853.2 hPa | - | - | 34 W/m² | - |
| 1788022509 | 13.89° C | 79% | 853.2 hPa | - | - | 14 W/m² | - |
| 1788021682 | 13.89° C | 80% | 853.2 hPa | - | - | 28 W/m² | - |
| 1788021309 | 14.44° C | 76% | 853 hPa | - | - | 28 W/m² | - |
| 1788020708 | 14.44° C | 76% | 853 hPa | - | - | 48 W/m² | - |
| 1788019882 | 14.44° C | 73% | 853 hPa | - | - | 34 W/m² | - |
| 1788019509 | 14.44° C | 71% | 853 hPa | - | - | 62 W/m² | - |
* Rain since midnight (hover to see other rain measurements)
** Current wind speed in m/s (hover to see current wind gust speed)